DIRECTV 5 (TEMPO 1)

Last updated on Sun Jun 21 2026 00:03:03 GMT+0000 (Coordinated Universal Time)

1 27426U 02023A 26171.41885338 -.00000063 00000+0 00000+0 0 9993 2 27426 4.8871 75.2720 0003240 16.1878 217.8431 1.00272003 88157
UTC large
Height (km)
Speed (km/s)
/
Latitude / Longitude
Inclination (degrees)
Orbital Period (minutes)
Azimuth
Elevation
Range (km)
Doppler Factor

Next 0 passes for location: London (51.5072 / 0.1276)

No passes found over London.
DIRECTV 5 (TEMPO 1)